Date String (YYYY-MM-DD hh:mm:ss) UTC,Instrument flags,absolute air pressure of the measurement (hPa),sample flow rate (lpm),inlet stack bypass flow (lpm),air temperature of the measurement (°C),ambient temperature measured by the external sensor (°C),aerosol sample conditioner tube jacket temperature (°C),OPC LED temperature (°C),internal box temperature (°C),relative humidity of the measurement (%),span deviation,mass concentration of particles derived from Lorenz-Mie calculation of OPC scattering (μg/m³),mass concentration of particles derived from Lorenz-Mie calculation of OPC scattering (μg/m³),mass concentration of particles derived from Lorenz-Mie calculation of OPC scattering (μg/m³)
DateTimeUTC,F1_M11,P_M11,Q1_M11,Q2_M11,T1_M11,T2_M11,T3_M11,T4_M11,T5_M11,U1_M11,ZSPAN_M11,X0_M11,X2_M11,X1_M11
2024-01-27 18:00:00,SystemResetWarning,0837.2,5.01,000.00,021.5,020.9,000.0,029.6,023.0,14.3,0000.0,0007.81,0003.71,0003.50
2024-01-27 18:01:00,SystemResetWarning,0837.2,5.00,000.00,021.5,020.9,000.0,029.6,023.0,14.4,0000.0,0007.78,0003.72,0003.51
2024-01-27 18:02:00,SystemResetWarning,0837.2,4.99,000.00,021.5,021.0,000.0,029.7,023.1,13.9,0000.0,0007.70,0003.71,0003.51
2024-01-27 18:03:00,SystemResetWarning,0837.2,5.00,000.00,021.5,021.0,000.0,029.7,023.1,13.9,0000.0,0007.84,0003.70,0003.51
2024-01-27 18:04:00,SystemResetWarning,0837.1,5.00,000.00,021.6,021.0,000.0,029.7,023.1,14.1,0000.0,0007.87,0003.70,0003.52
2024-01-27 18:05:00,SystemResetWarning,0837.1,5.00,000.00,021.6,021.0,000.0,029.7,023.1,13.6,0000.0,0007.85,0003.70,0003.52
2024-01-27 18:06:00,SystemResetWarning,0837.0,5.00,000.00,021.6,021.0,000.0,029.7,023.1,13.3,0000.0,0007.20,0003.69,0003.53
2024-01-27 18:07:00,SystemResetWarning,0837.0,5.00,000.00,021.6,021.0,000.0,029.7,023.1,13.5,0000.0,0006.84,0003.70,0003.53
2024-01-27 18:08:00,SystemResetWarning,0836.9,5.00,000.00,021.6,021.1,000.0,029.8,023.2,13.6,0000.0,0005.28,0003.68,0003.52
2024-01-27 18:09:00,SystemResetWarning,0836.9,5.00,000.00,021.7,021.1,000.0,029.8,023.2,13.8,0000.0,0006.01,0003.66,0003.52
2024-01-27 18:10:00,SystemResetWarning,0836.9,5.00,000.00,021.7,021.1,000.0,029.8,023.2,13.7,0000.0,0006.39,0003.65,0003.51
2024-01-27 18:11:00,SystemResetWarning,0837.0,5.00,000.00,021.7,021.1,000.0,029.8,023.2,13.9,0000.0,0006.29,0003.64,0003.51
2024-01-27 18:12:00,SystemResetWarning,0837.0,5.00,000.00,021.7,021.1,000.0,029.8,023.2,14.1,0000.0,0006.23,0003.62,0003.51
2024-01-27 18:13:00,SystemResetWarning,0837.0,5.00,000.00,021.7,021.1,000.0,029.8,023.2,14.8,0000.0,0006.15,0003.60,0003.49
2024-01-27 18:14:00,SystemResetWarning,0836.9,5.00,000.00,021.7,021.2,000.0,029.9,023.3,14.5,0000.0,0005.88,0003.58,0003.48
2024-01-27 18:15:00,SystemResetWarning,0836.9,5.00,000.00,021.7,021.2,000.0,029.9,023.3,14.0,0000.0,0005.70,0003.58,0003.48
2024-01-27 18:16:00,SystemResetWarning,0836.9,5.00,000.00,021.8,021.2,000.0,029.9,023.3,14.1,0000.0,0005.73,0003.58,0003.47
2024-01-27 18:17:00,SystemResetWarning,0836.9,5.00,000.00,021.8,021.2,000.0,029.9,023.3,14.0,0000.0,0005.75,0003.57,0003.46
2024-01-27 18:18:00,SystemResetWarning,0836.9,5.00,000.00,021.8,021.2,000.0,029.9,023.3,13.8,0000.0,0005.85,0003.59,0003.46
2024-01-27 18:19:00,SystemResetWarning,0836.9,5.00,000.00,021.8,021.2,000.0,029.9,023.3,14.1,0000.0,0005.94,0003.60,0003.47
2024-01-27 18:20:00,SystemResetWarning,0836.9,5.00,000.00,021.8,021.2,000.0,030.0,023.3,14.1,0000.0,0005.45,0003.63,0003.48
2024-01-27 18:21:00,SystemResetWarning,0836.9,5.00,000.00,021.8,021.2,000.0,030.0,023.3,13.8,0000.0,0005.01,0003.66,0003.49
2024-01-27 18:22:00,SystemResetWarning,0836.8,5.01,000.00,021.8,021.3,000.0,030.0,023.4,13.6,0000.0,0005.41,0003.67,0003.49
2024-01-27 18:23:00,SystemResetWarning,0836.8,5.00,000.00,021.9,021.3,000.0,030.0,023.4,13.3,0000.0,0005.46,0003.66,0003.48
2024-01-27 18:24:00,SystemResetWarning,0836.8,5.00,000.00,021.9,021.3,000.0,030.0,023.4,13.4,0000.0,0005.60,0003.69,0003.48
2024-01-27 18:25:00,SystemResetWarning,0836.8,5.00,000.00,021.9,021.3,000.0,030.0,023.4,13.3,0000.0,0005.65,0003.70,0003.49
2024-01-27 18:26:00,SystemResetWarning,0836.8,5.00,000.00,021.9,021.3,000.0,030.1,023.4,13.3,0000.0,0005.81,0003.72,0003.49
2024-01-27 18:27:00,SystemResetWarning,0836.8,5.00,000.00,021.9,021.4,000.0,030.1,023.4,12.9,0000.0,0005.95,0003.73,0003.49
2024-01-27 18:28:00,SystemResetWarning,0836.8,5.00,000.00,021.9,021.4,000.0,030.1,023.5,12.7,0000.0,0006.22,0003.77,0003.50
2024-01-27 18:29:00,SystemResetWarning,0836.7,5.00,000.00,022.0,021.4,000.0,030.1,023.5,12.8,0000.0,0006.18,0003.76,0003.50
2024-01-27 18:30:00,SystemResetWarning,0836.7,4.99,000.00,022.0,021.4,000.0,030.1,023.5,12.9,0000.0,0006.02,0003.75,0003.48
2024-01-27 18:31:00,SystemResetWarning,0836.7,5.00,000.00,022.0,021.4,000.0,030.1,023.5,12.9,0000.0,0005.99,0003.72,0003.45
2024-01-27 18:32:00,SystemResetWarning,0836.7,5.00,000.00,022.0,021.4,000.0,030.1,023.5,12.7,0000.0,0006.65,0003.72,0003.44
2024-01-27 18:33:00,SystemResetWarning,0836.7,5.00,000.00,022.0,021.4,000.0,030.2,023.5,12.4,0000.0,0006.23,0003.71,0003.44
2024-01-27 18:34:00,SystemResetWarning,0836.7,5.00,000.00,022.0,021.5,000.0,030.2,023.5,12.5,0000.0,0006.49,0003.73,0003.46
2024-01-27 18:35:00,SystemResetWarning,0836.6,5.01,000.00,022.0,021.5,000.0,030.2,023.6,13.0,0000.0,0006.47,0003.75,0003.49
2024-01-27 18:36:00,SystemResetWarning,0836.6,5.00,000.00,022.1,021.5,000.0,030.2,023.6,13.4,0000.0,0006.53,0003.76,0003.51
2024-01-27 18:37:00,SystemResetWarning,0836.6,4.99,000.00,022.1,021.5,000.0,030.2,023.6,13.1,0000.0,0006.90,0003.81,0003.56
2024-01-27 18:38:00,SystemResetWarning,0836.6,5.00,000.00,022.1,021.5,000.0,030.2,023.6,12.9,0000.0,0007.00,0003.89,0003.62
2024-01-27 18:39:00,SystemResetWarning,0836.6,5.00,000.00,022.1,021.5,000.0,030.3,023.6,12.3,0000.0,0007.07,0003.95,0003.67
2024-01-27 18:40:00,SystemResetWarning,0836.6,5.00,000.00,022.1,021.6,000.0,030.3,023.7,11.9,0000.0,0007.41,0004.02,0003.72
2024-01-27 18:41:00,SystemResetWarning,0836.5,5.00,000.00,022.2,021.6,000.0,030.3,023.7,11.9,0000.0,0007.56,0004.11,0003.78
2024-01-27 18:42:00,SystemResetWarning,0836.5,5.00,000.00,022.2,021.6,000.0,030.3,023.7,11.6,0000.0,0007.61,0004.17,0003.83
2024-01-27 18:43:00,SystemResetWarning,0836.5,5.01,000.00,022.2,021.6,000.0,030.3,023.7,11.6,0000.0,0007.29,0004.21,0003.88
2024-01-27 18:44:00,SystemResetWarning,0836.5,5.00,000.00,022.2,021.6,000.0,030.3,023.8,11.7,0000.0,0007.34,0004.28,0003.92
2024-01-27 18:45:00,SystemResetWarning,0836.5,5.00,000.00,022.2,021.6,000.0,030.4,023.8,11.6,0000.0,0007.87,0004.29,0003.95
2024-01-27 18:46:00,SystemResetWarning,0836.5,4.99,000.00,022.2,021.7,000.0,030.4,023.8,11.6,0000.0,0007.98,0004.32,0003.97
2024-01-27 18:47:00,SystemResetWarning,0836.4,4.99,000.00,022.3,021.7,000.0,030.4,023.8,11.9,0000.0,0008.04,0004.36,0003.98
2024-01-27 18:48:00,SystemResetWarning,0836.4,5.00,000.00,022.3,021.7,000.0,030.4,023.8,11.5,0000.0,0007.88,0004.34,0003.97
2024-01-27 18:49:00,SystemResetWarning,0836.4,5.01,000.00,022.3,021.7,000.0,030.4,023.8,11.5,0000.0,0007.90,0004.34,0003.94
2024-01-27 18:50:00,SystemResetWarning,0836.4,5.01,000.00,022.3,021.7,000.0,030.4,023.9,12.2,0000.0,0007.94,0004.33,0003.93
2024-01-27 18:51:00,SystemResetWarning,0836.3,5.00,000.00,022.3,021.8,000.0,030.5,023.9,12.2,0000.0,0008.04,0004.30,0003.91
2024-01-27 18:52:00,SystemResetWarning,0836.4,4.99,000.00,022.4,021.8,000.0,030.5,023.9,12.2,0000.0,0007.95,0004.27,0003.90
2024-01-27 18:53:00,SystemResetWarning,0836.4,5.00,000.00,022.4,021.8,000.0,030.5,023.9,12.0,0000.0,0007.93,0004.24,0003.89
2024-01-27 18:54:00,SystemResetWarning,0836.4,5.00,000.00,022.4,021.8,000.0,030.5,023.9,11.5,0000.0,0007.97,0004.25,0003.88
2024-01-27 18:55:00,SystemResetWarning,0836.4,4.99,000.00,022.4,021.8,000.0,030.5,024.0,11.5,0000.0,0008.06,0004.24,0003.86
2024-01-27 18:56:00,SystemResetWarning,0836.4,5.00,000.00,022.4,021.9,000.0,030.5,024.0,11.5,0000.0,0007.94,0004.25,0003.85
2024-01-27 18:57:00,SystemResetWarning,0836.4,5.01,000.00,022.4,021.9,000.0,030.6,024.0,11.9,0000.0,0007.86,0004.25,0003.83
2024-01-27 18:58:00,SystemResetWarning,0836.4,5.00,000.00,022.5,021.9,000.0,030.6,024.0,11.6,0000.0,0007.75,0004.21,0003.81
2024-01-27 18:59:00,SystemResetWarning,0836.4,5.01,000.00,022.5,021.9,000.0,030.6,024.0,11.9,0000.0,0007.73,0004.20,0003.81
